When you browse on this site, cookies collect data to enhance your experience and personalize the content and advertising you see.
Visit our Privacy Policy to learn more. By continuing to use the site, you agree to this use of cookies and data.
  • în România
  • Lista ţărilor
  • Pe 7 zile
  • Temperatura apei
  • Hartă satelitară
  • Meteo pe hartă
  • Widget-uri
  • user-avatar
    Intrare

    Meteo pe oră la Galway

    Astăzi, 26 Martie, Marţi

    Timp Temperatura Precipitaţii Vânt Presiune Umiditate
    00:00 +6°C° 0 mm 1 m/s 776 mmHg 89%
    01:00 +4°C° 0 mm 2 m/s 776 mmHg 89%
    02:00 +4°C° 0 mm 2 m/s 776 mmHg 90%
    03:00 +4°C° 0 mm 2 m/s 776 mmHg 91%
    04:00 +4°C° 0 mm 2 m/s 776 mmHg 92%
    05:00 +4°C° 0 mm 2 m/s 776 mmHg 93%
    06:00 +5°C° 0 mm 2 m/s 776 mmHg 89%
    07:00 +7°C° 0 mm 3 m/s 776 mmHg 85%
    08:00 +9°C° 0 mm 3 m/s 776 mmHg 81%
    09:00 +9°C° 0 mm 3 m/s 775 mmHg 79%
    10:00 +10°C° 0 mm 4 m/s 775 mmHg 76%
    11:00 +10°C° 0 mm 4 m/s 775 mmHg 74%
    12:00 +10°C° 0 mm 4 m/s 775 mmHg 73%
    13:00 +11°C° 0 mm 4 m/s 775 mmHg 73%
    14:00 +11°C° 0 mm 4 m/s 775 mmHg 72%
    15:00 +10°C° 0 mm 4 m/s 775 mmHg 75%
    16:00 +10°C° 0 mm 3 m/s 775 mmHg 78%
    17:00 +9°C° 0 mm 3 m/s 775 mmHg 81%
    18:00 +8°C° 0 mm 3 m/s 775 mmHg 85%
    19:00 +7°C° 0 mm 2 m/s 775 mmHg 89%
    20:00 +6°C° 0 mm 2 m/s 776 mmHg 93%
    21:00 +6°C° 0 mm 2 m/s 776 mmHg 93%
    22:00 +6°C° 0 mm 2 m/s 776 mmHg 93%
    23:00 +6°C° 0 mm 2 m/s 776 mmHg 93%

    Mâine, 27 Martie, Miercuri

    Timp Temperatura Precipitaţii Vânt Presiune Umiditate
    00:00 +6°C° 0 mm 2 m/s 776 mmHg 92%
    01:00 +5°C° 0 mm 3 m/s 776 mmHg 92%
    02:00 +5°C° 0 mm 3 m/s 776 mmHg 91%
    03:00 +5°C° 0 mm 3 m/s 776 mmHg 92%
    04:00 +4°C° 0 mm 3 m/s 776 mmHg 93%
    05:00 +4°C° 0 mm 3 m/s 776 mmHg 93%
    06:00 +5°C° 0 mm 3 m/s 776 mmHg 90%
    07:00 +7°C° 0 mm 3 m/s 776 mmHg 87%
    08:00 +8°C° 0 mm 3 m/s 776 mmHg 84%
    09:00 +8°C° 0 mm 4 m/s 776 mmHg 81%
    10:00 +11°C° 0 mm 4 m/s 777 mmHg 77%
    11:00 +12°C° 0 mm 4 m/s 777 mmHg 74%
    12:00 +12°C° 0 mm 4 m/s 777 mmHg 74%
    13:00 +12°C° 0 mm 4 m/s 777 mmHg 74%
    14:00 +12°C° 0 mm 4 m/s 777 mmHg 74%
    15:00 +11°C° 0 mm 4 m/s 777 mmHg 77%
    16:00 +11°C° 0 mm 3 m/s 777 mmHg 80%
    17:00 +10°C° 0 mm 3 m/s 776 mmHg 82%
    18:00 +9°C° 0 mm 3 m/s 777 mmHg 86%
    19:00 +8°C° 0 mm 2 m/s 777 mmHg 90%
    20:00 +6°C° 0 mm 2 m/s 777 mmHg 94%
    21:00 +6°C° 0 mm 2 m/s 778 mmHg 94%
    22:00 +6°C° 0 mm 2 m/s 778 mmHg 94%
    23:00 +6°C° 0 mm 2 m/s 778 mmHg 94%

    Poimâine, 28 Martie, Joi

    Timp Temperatura Precipitaţii Vânt Presiune Umiditate
    00:00 +6°C° 0 mm 2 m/s 778 mmHg 94%
    01:00 +6°C° 0 mm 2 m/s 778 mmHg 95%
    02:00 +6°C° 0 mm 2 m/s 777 mmHg 95%
    03:00 +6°C° 0 mm 2 m/s 777 mmHg 95%
    04:00 +5°C° 0 mm 2 m/s 777 mmHg 96%
    05:00 +4°C° 0 mm 3 m/s 777 mmHg 96%
    06:00 +5°C° 0 mm 3 m/s 777 mmHg 93%
    07:00 +8°C° 0 mm 3 m/s 777 mmHg 90%
    08:00 +9°C° 0 mm 3 m/s 777 mmHg 87%
    09:00 +10°C° 0 mm 3 m/s 777 mmHg 80%
    10:00 +11°C° 0 mm 3 m/s 777 mmHg 73%
    11:00 +13°C° 0 mm 4 m/s 777 mmHg 66%
    12:00 +13°C° 0 mm 4 m/s 776 mmHg 63%
    13:00 +14°C° 0 mm 4 m/s 776 mmHg 61%
    14:00 +14°C° 0 mm 4 m/s 775 mmHg 58%
    15:00 +13°C° 0 mm 3 m/s 775 mmHg 63%
    16:00 +12°C° 0 mm 3 m/s 775 mmHg 68%
    17:00 +11°C° 0 mm 3 m/s 774 mmHg 73%
    18:00 +10°C° 0 mm 3 m/s 774 mmHg 78%
    19:00 +8°C° 0 mm 2 m/s 774 mmHg 84%
    20:00 +7°C° 0 mm 2 m/s 774 mmHg 89%
    21:00 +5°C° 0 mm 3 m/s 774 mmHg 89%
    22:00 +5°C° 0 mm 3 m/s 774 mmHg 90%
    23:00 +5°C° 0 mm 3 m/s 774 mmHg 91%

    29 Martie, Vineri

    Timp Temperatura Precipitaţii Vânt Presiune Umiditate
    00:00 +4°C° 0 mm 4 m/s 773 mmHg 90%
    01:00 +4°C° 0 mm 4 m/s 773 mmHg 89%
    02:00 +4°C° 0 mm 4 m/s 772 mmHg 88%
    03:00 +4°C° 0 mm 4 m/s 772 mmHg 89%
    04:00 +4°C° 0 mm 4 m/s 772 mmHg 90%
    05:00 +3°C° 0 mm 4 m/s 772 mmHg 91%
    06:00 +5°C° 0 mm 4 m/s 772 mmHg 88%
    07:00 +7°C° 0 mm 4 m/s 772 mmHg 84%
    08:00 +8°C° 0 mm 5 m/s 772 mmHg 80%
    09:00 +10°C° 0 mm 5 m/s 771 mmHg 76%
    10:00 +12°C° 0 mm 5 m/s 771 mmHg 73%
    11:00 +13°C° 0 mm 5 m/s 771 mmHg 70%
    12:00 +13°C° 0 mm 5 m/s 770 mmHg 69%
    13:00 +14°C° 0 mm 5 m/s 770 mmHg 69%
    14:00 +14°C° 0 mm 5 m/s 770 mmHg 69%
    15:00 +13°C° 0 mm 4 m/s 769 mmHg 73%
    16:00 +12°C° 0 mm 4 m/s 769 mmHg 78%
    17:00 +11°C° 0 mm 3 m/s 769 mmHg 82%
    18:00 +10°C° 0 mm 3 m/s 769 mmHg 87%
    19:00 +8°C° 0 mm 2 m/s 769 mmHg 91%
    20:00 +7°C° 0 mm 2 m/s 769 mmHg 96%
    21:00 +7°C° 0 mm 2 m/s 769 mmHg 96%
    22:00 +7°C° 0 mm 2 m/s 769 mmHg 96%
    23:00 +6°C° 0 mm 2 m/s 769 mmHg 96%

    30 Martie, Sâmbătă

    Timp Temperatura Precipitaţii Vânt Presiune Umiditate
    00:00 +7°C° 0 mm 2 m/s 769 mmHg 96%
    01:00 +7°C° 0 mm 2 m/s 769 mmHg 95%
    02:00 +7°C° 0 mm 2 m/s 769 mmHg 94%
    03:00 +7°C° 0 mm 2 m/s 769 mmHg 93%
    04:00 +8°C° 0 mm 2 m/s 769 mmHg 92%
    05:00 +8°C° 0 mm 2 m/s 769 mmHg 91%
    06:00 +8°C° 0.1 mm 2 m/s 769 mmHg 90%
    07:00 +9°C° 0.1 mm 2 m/s 769 mmHg 89%
    08:00 +9°C° 0.1 mm 2 m/s 770 mmHg 87%
    09:00 +9°C° 0 mm 3 m/s 770 mmHg 86%
    10:00 +8°C° 0 mm 4 m/s 770 mmHg 84%
    11:00 +8°C° 0 mm 5 m/s 771 mmHg 82%
    12:00 +8°C° 0 mm 5 m/s 771 mmHg 79%
    13:00 +8°C° 0 mm 6 m/s 771 mmHg 75%
    14:00 +8°C° 0 mm 6 m/s 771 mmHg 72%
    15:00 +8°C° 0 mm 6 m/s 771 mmHg 71%
    16:00 +7°C° 0 mm 5 m/s 772 mmHg 70%
    17:00 +7°C° 0 mm 5 m/s 772 mmHg 69%
    18:00 +6°C° 0 mm 5 m/s 773 mmHg 71%
    19:00 +3°C° 0 mm 5 m/s 773 mmHg 73%
    20:00 +2°C° 0 mm 5 m/s 774 mmHg 75%
    21:00 +1°C° 0 mm 4 m/s 774 mmHg 77%
    22:00 +1°C° 0 mm 4 m/s 774 mmHg 79%
    23:00 0°C° 0 mm 4 m/s 775 mmHg 81%

    31 Martie, Duminică

    Timp Temperatura Precipitaţii Vânt Presiune Umiditate
    00:00 0°C° 0 mm 4 m/s 775 mmHg 82%
    01:00 0°C° 0 mm 3 m/s 775 mmHg 83%
    02:00 0°C° 0 mm 3 m/s 775 mmHg 84%
    03:00 -1°C° 0 mm 3 m/s 775 mmHg 85%
    04:00 -1°C° 0 mm 3 m/s 775 mmHg 85%
    05:00 -1°C° 0 mm 3 m/s 775 mmHg 86%
    06:00 0°C° 0 mm 3 m/s 775 mmHg 80%
    07:00 +2°C° 0 mm 3 m/s 775 mmHg 74%
    08:00 +4°C° 0 mm 4 m/s 776 mmHg 68%
    09:00 +5°C° 0 mm 3 m/s 776 mmHg 64%
    10:00 +8°C° 0 mm 3 m/s 776 mmHg 61%
    11:00 +9°C° 0 mm 3 m/s 776 mmHg 57%
    12:00 +9°C° 0 mm 3 m/s 776 mmHg 58%
    13:00 +9°C° 0 mm 2 m/s 775 mmHg 59%
    14:00 +9°C° 0 mm 2 m/s 775 mmHg 60%
    15:00 +10°C° 0 mm 1 m/s 775 mmHg 63%
    16:00 +9°C° 0 mm 1 m/s 775 mmHg 67%
    17:00 +9°C° 0 mm 1 m/s 775 mmHg 70%
    18:00 +8°C° 0 mm 1 m/s 775 mmHg 73%
    19:00 +6°C° 0 mm 0 m/s 775 mmHg 76%
    20:00 +4°C° 0 mm 0 m/s 775 mmHg 78%
    21:00 +5°C° 0 mm 1 m/s 775 mmHg 79%
    22:00 +5°C° 0 mm 1 m/s 775 mmHg 80%
    23:00 +5°C° 0 mm 1 m/s 774 mmHg 80%
    Arată mai mult